2024/04/13 00:00:00, 0.7, 6.6
2024/04/13 00:10:00, 0.2, 7.3
2024/04/13 00:20:00, 0.1, 7.0
2024/04/13 00:30:00, 0.0, 6.6
2024/04/13 00:40:00, 0.0, 6.4
2024/04/13 00:50:00, 0.0, 6.9
2024/04/13 01:00:00, 0.0, 7.0
2024/04/13 01:10:00, 0.0, 6.8
2024/04/13 01:20:00, 0.0, 6.5
2024/04/13 01:30:00, 0.0, 6.4
2024/04/13 01:40:00, 0.0, 6.6
2024/04/13 01:50:00, 0.0, 6.6
2024/04/13 02:00:00, 0.0, 6.4
2024/04/13 02:10:00, 0.1, 6.8
2024/04/13 02:20:00, 0.6, 6.3
2024/04/13 02:30:00, 0.5, 6.3
2024/04/13 02:40:00, 0.0, 5.9
2024/04/13 02:50:00, 0.0, 5.6
2024/04/13 03:00:00, 0.0, 6.1
2024/04/13 03:10:00, 0.0, 5.8
2024/04/13 03:20:00, 0.0, 5.7
2024/04/13 03:30:00, 0.0, 5.6
2024/04/13 03:40:00, 0.0, 5.8
2024/04/13 03:50:00, 0.1, 5.9
2024/04/13 04:00:00, 0.1, 6.2
2024/04/13 04:10:00, 0.1, 5.9
2024/04/13 04:20:00, 0.1, 5.7
2024/04/13 04:30:00, 0.1, 5.9
2024/04/13 04:40:00, 0.4, 5.6
2024/04/13 04:50:00, 1.8, 5.6
2024/04/13 05:00:00, 0.8, 5.4
2024/04/13 05:10:00, 0.5, 5.4
2024/04/13 05:20:00, 0.2, 5.1
2024/04/13 05:30:00, 0.1, 5.2
2024/04/13 05:40:00, 0.2, 5.0
2024/04/13 05:50:00, 1.1, 5.1
2024/04/13 06:00:00, 3.4, 5.3
2024/04/13 06:10:00, 2.1, 5.5
2024/04/13 06:20:00, 0.4, 6.0
2024/04/13 06:30:00, 0.4, 6.5
2024/04/13 06:40:00, 0.2, 6.7
2024/04/13 06:50:00, 0.2, 7.6
2024/04/13 07:00:00, 1.6, 8.0
2024/04/13 07:10:00, 2.7, 9.6
2024/04/13 07:20:00, 0.9,10.5
2024/04/13 07:30:00, 6.9,10.9
2024/04/13 07:40:00, 1.5,12.2
2024/04/13 07:50:00, 1.8,13.7
2024/04/13 08:00:00, 8.0,15.3
2024/04/13 08:10:00,13.7,14.8
2024/04/13 08:20:00,13.3,16.3
2024/04/13 08:30:00,10.5,16.9
2024/04/13 08:40:00, 7.9,17.8
2024/04/13 08:50:00, 4.3,19.1
2024/04/13 09:00:00, 6.9,20.4
2024/04/13 09:10:00, 4.6,19.8
2024/04/13 09:20:00, 5.8,21.4
2024/04/13 09:30:00,10.8,22.8
2024/04/13 09:40:00, 7.7,22.4
2024/04/13 09:50:00, 8.2,24.9
2024/04/13 10:00:00,15.9,23.7
2024/04/13 10:10:00,13.7,25.3
2024/04/13 10:20:00,12.7,24.6
2024/04/13 10:30:00, 8.1,24.3
2024/04/13 10:40:00,11.2,25.9
2024/04/13 10:50:00,16.2,24.9
2024/04/13 11:00:00,16.9,25.7
2024/04/13 11:10:00,18.4,26.1
2024/04/13 11:20:00,16.2,25.6
2024/04/13 11:30:00,16.6,25.5
2024/04/13 11:40:00,17.3,25.2
2024/04/13 11:50:00,15.2,25.4
2024/04/13 12:00:00,15.8,23.9
2024/04/13 12:10:00,15.0,24.7
2024/04/13 12:20:00,19.7,25.4
2024/04/13 12:30:00,21.0,25.3
2024/04/13 12:40:00,18.9,25.2
2024/04/13 12:50:00,13.2,24.5
2024/04/13 13:00:00,16.6,24.4
2024/04/13 13:10:00,15.7,24.3
2024/04/13 13:20:00,15.5,24.7
2024/04/13 13:30:00,13.8,24.9
2024/04/13 13:40:00,12.9,24.5
2024/04/13 13:50:00, 9.9,24.3
2024/04/13 14:00:00, 8.2,24.9
2024/04/13 14:10:00, 8.6,23.7
2024/04/13 14:20:00, 5.7,24.7
2024/04/13 14:30:00, 8.1,24.7
2024/04/13 14:40:00, 8.4,25.1
2024/04/13 14:50:00, 9.3,25.6
2024/04/13 15:00:00, 8.0,25.1
2024/04/13 15:10:00, 3.9,25.1
2024/04/13 15:20:00, 4.4,24.1
2024/04/13 15:30:00, 3.3,24.2
2024/04/13 15:40:00, 4.9,23.2
2024/04/13 15:50:00, 6.7,23.6
2024/04/13 16:00:00,11.9,20.7
2024/04/13 16:10:00,11.4,22.2
2024/04/13 16:20:00,10.5,23.9
2024/04/13 16:30:00,11.4,21.0
2024/04/13 16:40:00,11.5,19.7
2024/04/13 16:50:00,11.0,19.6
2024/04/13 17:00:00,10.3,19.3
2024/04/13 17:10:00, 9.7,19.1
2024/04/13 17:20:00, 6.3,17.9
2024/04/13 17:30:00, 6.4,19.1
2024/04/13 17:40:00, 7.1,18.8
2024/04/13 17:50:00, 7.5,18.9
2024/04/13 18:00:00, 8.7,18.1
2024/04/13 18:10:00, 8.1,15.5
2024/04/13 18:20:00, 6.7,15.0
2024/04/13 18:30:00, 7.8,14.4
2024/04/13 18:40:00, 7.6,13.9
2024/04/13 18:50:00, 7.0,13.4
2024/04/13 19:00:00, 4.9,13.0
2024/04/13 19:10:00, 3.6,11.9
2024/04/13 19:20:00, 2.5,11.9
2024/04/13 19:30:00, 1.4,11.2
2024/04/13 19:40:00, 0.9,10.7
2024/04/13 19:50:00, 0.8,10.9
2024/04/13 20:00:00, 0.6,10.4
2024/04/13 20:10:00, 0.7, 9.9
2024/04/13 20:20:00, 0.7, 9.8
2024/04/13 20:30:00, 0.7, 9.7
2024/04/13 20:40:00, 0.6, 9.4
2024/04/13 20:50:00, 0.6, 9.2
2024/04/13 21:00:00, 0.7, 9.0
2024/04/13 21:10:00, 0.0, 8.8
2024/04/13 21:20:00, 0.0, 8.7
2024/04/13 21:30:00, 0.0, 8.5
2024/04/13 21:40:00, 0.0, 8.4
2024/04/13 21:50:00, 0.0, 8.6
2024/04/13 22:00:00, 0.0, 9.0
2024/04/13 22:10:00, 0.0, 8.4
2024/04/13 22:20:00, 0.0, 8.4
2024/04/13 22:30:00, 0.0, 8.0
2024/04/13 22:40:00, 0.0, 7.8
2024/04/13 22:50:00, 0.0, 7.6
2024/04/13 23:00:00, 0.0, 8.1
2024/04/13 23:10:00, 0.0, 8.1
2024/04/13 23:20:00, 0.0, 8.2
2024/04/13 23:30:00, 0.0, 8.0
2024/04/13 23:40:00, 0.0, 7.4
2024/04/13 23:50:00, 0.0, 7.2
